Miscellaneous Local Product
Issued by NWS Hastings, NE

Home | Current Version | Previous Version | Text Only | Print | Product List | Glossary On
Versions: 1 2 3 4 5 6 7 8 9 10 11 12 13 14 15 16 17 18 19 20 21 22 23 24 25 26 27 28 29 30 31 32 33 34 35 36 37 38 39 40 41 42 43 44 45 46 47 48 49 50
976
AXUS43 KGID 101702
MISGRI

GID CWA HOURLY WEATHER ROUNDUP
NATIONAL WEATHER SERVICE HASTINGS NE
1100 AM CST SAT DEC 10 2016

NOTE: "FAIR" INDICATES FEW OR NO CLOUDS BELOW 12,000 FEET WITH NO
SIGNIFICANT WEATHER AND/OR OBSTRUCTIONS TO VISIBILITY.

...SOUTH CENTRAL NEBRASKA...

CITY           SKY/WX    TMP DP  RH WIND       PRES   REMARKS
GRAND ISLAND   CLOUDY    27  19  72 SE13G25   30.18F WCI  16
HASTINGS       CLOUDY    27  16  63 S15       30.18F WCI  15
KEARNEY        CLOUDY    27  16  63 SE17      30.12F WCI  14
ORD            CLOUDY    25  15  66 SE14G23   30.13F WCI  13
YORK           PTSUNNY   28  18  64 SE15      30.21F WCI  17
AURORA         CLOUDY    28  19  69 S15G22    30.19F WCI  16
LEXINGTON      CLOUDY    26  17  67 S14       30.10S WCI  15
HOLDREGE       CLOUDY    26  17  69 S20       30.10F WCI  12
HEBRON         PTSUNNY   30  17  58 SE13      30.24F WCI  20

...NEBRASKA PANHANDLE...

CITY           SKY/WX    TMP DP  RH WIND       PRES   REMARKS
CHADRON        CLOUDY     9   4  80 CALM      29.92F
ALLIANCE       CLOUDY    20  15  81 S12       29.86F WCI   8
SCOTTSBLUFF    CLOUDY    20  14  77 E7        29.86F WCI  11
SIDNEY         CLOUDY    26  19  74 S8        29.88F WCI  18

...WESTERN AND NORTH CENTRAL NEBRASKA...

CITY           SKY/WX    TMP DP  RH WIND       PRES   REMARKS
VALENTINE      CLOUDY    11   6  81 E9        30.03F WCI  -2
AINSWORTH      CLOUDY    19  17  90 SE18      30.03F WCI   4
ONEILL         CLOUDY    22  18  85 SE16G22   30.15F WCI   8
BROKEN BOW     CLOUDY    25  17  72 S18       30.06F WCI  11
IMPERIAL       CLOUDY    22  18  85 VRB3      30.00R
NORTH PLATTE   CLOUDY    24  15  68 SE13      30.03F WCI  12
MCCOOK         CLOUDY    23  17  78 S15       30.05F WCI  10

...EASTERN NEBRASKA...

CITY           SKY/WX    TMP DP  RH WIND       PRES   REMARKS
NORFOLK        CLOUDY    21  17  84 SE16      30.23F WCI   7
SO SIOUX CITY  CLOUDY    23  18  81 SE14      30.33S HAZE    WCI  11
TEKAMAH        CLOUDY    23  19  85 SE9       30.34F WCI  13
COLUMBUS       CLOUDY    27  18  69 SE15      30.24F WCI  15
ALBION         MOSUNNY   23  18  78 SE14      30.20F WCI  11
OMAHA EPPLEY   CLOUDY    26  17  68 SE10      30.34F WCI  16
OFFUTT AFB     CLOUDY    28  18  65 SE10      30.32F WCI  19
MILLARD        CLOUDY    29  19  65 SE9       30.32F WCI  21
LINCOLN        CLOUDY    30  16  56 SE10      30.30F WCI  21
NEBRASKA CITY  CLOUDY    28  14  56 S8        30.33F WCI  20
BEATRICE       CLOUDY    31  17  54 SE12      30.28F WCI  22
FALLS CITY     CLOUDY    31  16  54 SE10      30.34F WCI  22

...NORTHERN KANSAS...

CITY           SKY/WX    TMP DP  RH WIND       PRES   REMARKS
GOODLAND       CLOUDY    24  22  91 S14       29.93F WCI  12
HILL CITY      CLOUDY    30  18  60 S12G20    30.11F WCI  20
NORTON         MOSUNNY   27  16  63 SE14      30.08F WCI  15
PHILLIPSBURG   SUNNY     30  18  59 SE13      30.13F WCI  20
SMITH CENTER   MOSUNNY   28  18  64 SE15      30.17F WCI  17
BELOIT         CLOUDY    28  18  64 SE13      30.20F WCI  18
HAYS           CLOUDY    31  20  63 S17       30.13F WCI  19
RUSSELL        CLOUDY    32  18  56 S21       30.14F WCI  20
CONCORDIA      CLOUDY    29  18  63 SE12      30.24F WCI  19
SALINA         CLOUDY    35  19  52 SE12      30.25F WCI  27
TOPEKA         PTSUNNY   34  19  54 SE10      30.33F WCI  26



USA.gov is the U.S. government's official web portal to all federal, state and local government web resources and services.